Location: Arbon
(43.0005°N, 0.7472°E)
Time: 12:11:28
(UTC+00:00)

deb Explorer IX - Visible Passes

Search period start: 30 November 2020 00:00
Search period end: 10 December 2020 00:00
Orbit: 538 x 1104 km, 38.8° (Epoch: 29 November)

Date Brightness Start Highest point End Pass type
(mag) Time Alt. Az. Time Alt. Az. Time Alt. Az.
30 Nov ? 17:50:44 10° WSW 17:56:29 56° S 17:59:27 24° ESE visible
30 Nov ? 19:38:06 10° W 19:40:44 25° WSW 19:40:44 25° WSW visible
01 Dec ? 17:27:13 10° WSW 17:33:10 57° S 17:37:30 14° ESE visible
01 Dec ? 19:14:38 10° W 19:18:48 36° SW 19:18:48 36° SW visible
02 Dec ? 17:03:41 10° WSW 17:09:50 58° S 17:15:02 10° ESE visible
02 Dec ? 18:51:08 10° W 18:56:26 40° SSW 18:56:55 39° S visible
03 Dec ? 18:27:37 10° W 18:33:08 41° SSW 18:35:05 29° SSE visible
03 Dec ? 20:16:13 10° WSW 20:16:23 11° WSW 20:16:23 11° WSW visible
04 Dec ? 18:04:06 10° W 18:09:47 42° SSW 18:13:21 18° SE visible
04 Dec ? 19:52:40 10° WSW 19:54:40 15° SW 19:54:40 15° SW visible
05 Dec ? 17:40:34 10° W 17:46:26 43° SSW 17:51:28 10° SE visible
05 Dec ? 19:29:06 10° WSW 19:32:26 16° SW 19:33:03 16° SSW visible
06 Dec ? 17:17:00 10° W 17:23:04 44° SSW 17:28:16 10° SE visible
06 Dec ? 19:05:31 10° WSW 19:09:06 17° SW 19:11:35 13° S visible
07 Dec ? 16:53:26 10° W 16:59:40 45° SSW 17:05:03 10° SE visible
07 Dec ? 18:41:56 10° WSW 18:45:45 18° SW 18:49:14 10° S visible
08 Dec ? 18:18:20 10° WSW 18:22:23 18° SW 18:26:04 10° S visible
09 Dec ? 17:54:44 10° W 17:59:00 19° SW 18:02:53 10° S visible
